Location: Columbia
(38.9520°N, 92.3340°W)
Time: 18:50:34
(UTC-05:00)

SL-08 RB Rocket - Visible Passes

Search period start: 22 July 2014 00:00
Search period end: 01 August 2014 00:00
Orbit: 649 x 689 km, 98.1° (Epoch: 22 July)

Date Brightness Start Highest point End Pass type
(mag) Time Alt. Az. Time Alt. Az. Time Alt. Az.
22 Jul 3.6 22:48:46 53° S 22:49:49 82° WSW 22:54:20 10° NNW visible
23 Jul 5.2 21:43:34 16° E 21:45:36 21° ENE 21:48:57 10° NNE visible
23 Jul 4.8 23:21:47 33° WSW 23:22:27 35° W 23:26:36 10° NNW visible
24 Jul 4.2 22:16:35 34° ESE 22:17:58 44° ENE 22:22:15 10° N visible
24 Jul 5.9 23:54:47 16° W 23:55:14 16° W 23:58:00 10° NW visible
25 Jul 3.6 22:49:36 58° S 22:50:28 80° WSW 22:54:59 10° NNW visible
26 Jul 5.2 21:44:25 17° E 21:46:15 21° ENE 21:49:37 10° NNE visible
26 Jul 4.8 23:22:37 33° WSW 23:23:06 34° W 23:27:13 10° NNW visible
27 Jul 4.1 22:17:26 36° ESE 22:18:36 45° ENE 22:22:53 10° N visible
27 Jul 5.9 23:55:38 16° W 23:55:54 16° W 23:58:36 10° NW visible
28 Jul 3.6 22:50:27 64° S 22:51:07 79° WSW 22:55:37 10° NNW visible
29 Jul 5.2 21:45:17 18° E 21:46:54 21° ENE 21:50:16 10° NNE visible
29 Jul 4.8 23:23:29 33° WSW 23:23:45 34° W 23:27:51 10° NNW visible
30 Jul 4.1 22:18:18 39° ESE 22:19:15 46° ENE 22:23:32 10° N visible
30 Jul 6.0 23:56:30 15° W 23:56:33 15° W 23:59:11 10° NW visible
31 Jul 5.9 21:15:04 10° ENE 21:15:20 10° ENE 21:15:35 10° ENE visible
31 Jul 3.6 22:51:19 70° SSW 22:51:45 78° WSW 22:56:15 10° NNW visible
